Overview Statistics Trail Chart Weather Telemetry Raw packets
 

This is the latest recevied weather packets stored in our database for station/object WA2GUG. If no packets are shown the sender has not sent any weather packets the latest 10 day(s).

<< 34 35 36 37 38 39 40 >>
Time Temp. Humidity Pressure Rain* Wind** Luminosity Snow
1777467850 15.56° C 99% 1010 hPa - - - -
1777467550 15° C 99% 1009.2 hPa - - - -
1777467250 15° C 99% 1010 hPa - - - -
1777466950 14.44° C 99% 1010 hPa - - - -
1777466650 14.44° C 99% 1010 hPa - - - -
1777466350 14.44° C 99% 1010 hPa - - - -
1777466050 13.89° C 99% 1010 hPa - - - -
1777465750 13.89° C 99% 1010 hPa - - - -
1777465450 13.33° C 99% 1010 hPa - - - -
1777465150 13.33° C 99% 1010.2 hPa - - - -
1777464850 12.78° C 99% 1011 hPa - - - -
1777464550 12.78° C 99% 1010.2 hPa - - - -
1777464250 12.78° C 99% 1010.1 hPa - - - -
1777463950 12.22° C 99% 1011 hPa - - - -
1777463650 11.67° C 99% 1010.2 hPa - - - -
1777463350 11.11° C 99% 1011 hPa - - - -
1777463050 10.56° C 99% 1010.2 hPa - - - -
1777462750 11.11° C 99% 1011 hPa - - - -
1777462450 11.11° C 99% 1010.2 hPa - - - -
1777462150 11.11° C 99% 1010.2 hPa - - - -
1777461850 11.11° C 99% 1010.1 hPa - - - -
1777461550 11.11° C 99% 1010.2 hPa - - - -
1777461250 10.56° C 99% 1010.2 hPa - - - -
1777460950 10.56° C 99% 1010.2 hPa - - - -
1777460650 10° C 99% 1010.2 hPa - - - -

* Rain since midnight (hover to see other rain measurements)
** Current wind speed in m/s (hover to see current wind gust speed)